Weather History for Ireland West Airport Knock, Ireland

Change the Weather History Date:

Tuesday, February 19, 2013

  Actual Average Record
Temperature  
Mean Temperature 42 °F -  
Max Temperature 46 °F - - ()
Min Temperature 38 °F - - ()
Degree Days  
Heating Degree Days 23    
Moisture  
Dew Point 39 °F    
Average Humidity 84    
Maximum Humidity 100    
Minimum Humidity 65    
Precipitation  
Precipitation 0.00 in - - ()
Sea Level Pressure  
Sea Level Pressure 30.00 in    
Wind  
Wind Speed 9 mph ()    
Max Wind Speed 14 mph    
Max Gust Speed -    
Visibility 7.3 miles    
Events      
T = Trace of Precipitation, MM = Missing Value Source: Averaged Metar Reports

Daily Weather History Graph

Daily Weather History Graph

Search for Another Location

Airport:

Trip Planner

Search our weather history database for the weather conditions in past years. The results will help you decide how hot, cold, wet, or windy it might be!

Date:

Astronomy

Feb. 19, 2013 Rise Set
Actual Time 7:46 AM GMT 5:52 PM GMT
Civil Twilight 7:09 AM GMT 6:29 PM GMT
Nautical Twilight 6:28 AM GMT 7:10 PM GMT
Astronomical Twilight 5:48 AM GMT 7:51 PM GMT
Moon 11:44 AM GMT (2/19) 3:35 AM GMT (2/19)
Length of Visible Light 11h 19m
Length of Day
10h 06m
Waxing Gibbous, 65% of the Moon is Illuminated
Feb 19
Waxing Gibbous
Feb 25
Full
Mar 4
Last Quarter
Mar 11
New
Mar 19
First Quarter

Hourly Weather History & Observations

Time (GMT) Temp. Windchill Dew Point Humidity Pressure Visibility Wind Dir Wind Speed Gust Speed Precip Events Conditions
12:00 AM 41 °F - 38 °F 83% 30.04 in - ESE 11.2 mph - -  
6:00 AM 40 °F - 39 °F 95% 30.04 in 16 mi ESE 8.9 mph - -   Overcast
8:00 AM 39.2 °F 33.0 °F 37.4 °F 93% 30.01 in 6.2 mi SE 9.2 mph - N/A   Mostly Cloudy
8:30 AM 39.2 °F 32.5 °F 37.4 °F 93% 30.01 in 6.2 mi SE 10.4 mph - N/A   Mostly Cloudy
9:00 AM 39.2 °F 33.0 °F 37.4 °F 93% 30.01 in 6.2 mi SE 9.2 mph - N/A   Mostly Cloudy
9:30 AM 39.2 °F 33.6 °F 39.2 °F 100% 30.01 in 6.2 mi SE 8.1 mph - N/A   Mostly Cloudy
10:00 AM 41.0 °F 35.2 °F 39.2 °F 93% 30.01 in 6.2 mi SE 9.2 mph - N/A   Mostly Cloudy
10:30 AM 41.0 °F 34.7 °F 39.2 °F 93% 30.04 in 6.2 mi SE 10.4 mph - N/A   Mostly Cloudy
11:00 AM 41.0 °F 34.3 °F 39.2 °F 93% 30.01 in 6.2 mi SE 11.5 mph - N/A   Mostly Cloudy
11:30 AM 42.8 °F 36.6 °F 39.2 °F 87% 30.01 in 6.2 mi ESE 11.5 mph - N/A   Partly Cloudy
12:00 PM 46 °F - 38 °F 65% 30.04 in 12 mi SE 11.2 mph - -   Scattered Clouds
12:00 PM 46.4 °F 41.1 °F 37.4 °F 71% 30.01 in 6.2 mi SE 11.5 mph - N/A   Partly Cloudy
12:30 PM 46.4 °F 41.1 °F 39.2 °F 76% 30.01 in 6.2 mi SE 11.5 mph - N/A   Partly Cloudy
1:00 PM 46.4 °F 41.1 °F 39.2 °F 76% 30.01 in 6.2 mi SE 11.5 mph - N/A   Partly Cloudy
1:30 PM 46.4 °F 41.1 °F 39.2 °F 76% 29.98 in 6.2 mi SE 11.5 mph - N/A   Partly Cloudy
2:00 PM 46.4 °F 40.4 °F 39.2 °F 76% 29.98 in 6.2 mi SE 13.8 mph - N/A   Partly Cloudy
2:30 PM 44.6 °F 38.8 °F 39.2 °F 81% 29.98 in 6.2 mi SSE 11.5 mph - N/A   Scattered Clouds
3:00 PM 44.6 °F 39.7 °F 39.2 °F 81% 29.98 in 6.2 mi SE 9.2 mph - N/A   Mostly Cloudy
3:30 PM 44.6 °F 39.7 °F 39.2 °F 81% 29.98 in 6.2 mi SE 9.2 mph - N/A   Mostly Cloudy
4:00 PM 44.6 °F 39.7 °F 39.2 °F 81% 29.98 in 6.2 mi SE 9.2 mph - N/A   Scattered Clouds
4:30 PM 44.6 °F 39.7 °F 39.2 °F 81% 29.98 in 6.2 mi SE 9.2 mph - N/A   Mostly Cloudy
5:00 PM 44.6 °F 39.2 °F 39.2 °F 81% 29.98 in 6.2 mi SE 10.4 mph - N/A   Scattered Clouds
5:30 PM 42.8 °F 37.5 °F 39.2 °F 87% 29.98 in 6.2 mi SE 9.2 mph - N/A   Partly Cloudy
6:00 PM 41 °F - 38 °F 85% 30.00 in 16 mi ESE 8.9 mph - -   Scattered Clouds